[[{"header":{"parameterUnit":"m.s-1","parameterCategory":1,"la1":30.2991,"la2":30.254,"lo1":-89.0895,"lo2":-89.0444,"dy":0.0017,"dx":0.0017,"nx":28,"ny":28,"refTime":"2025-04-28T09:00:00:Z","depth":0,"parameterNumber":2,"parameterNumberName":"U-component_of_WINDS"},"data":[0,0,0,0,0,0,0,0,0,0,0,0,0,0,0,0,0,0,0,0,0,0,0,0,0,0,0,0,0,0,0,0,0,0,0,0,0,0,0,0,0,0,0,0,0,0,0,0,0,0,0,0,0,0,0,0,0,0,-2.7512,-2.7512,0,-2.7462,-2.7461,-2.746,-2.7374,-2.7372,-2.7371,-2.7369,-2.7317,-2.7317,-2.7317,0,0,0,0,0,0,0,0,0,0,0,0,0,-2.7536,-2.7536,-2.7512,-2.7512,-2.7511,-2.7462,-2.7461,-2.746,-2.7374,-2.7372,-2.737,-2.7369,-2.7317,-2.7317,-2.7317,0,0,0,0,0,0,0,0,0,0,0,0,0,-2.7509,-2.7536,-2.7513,-2.7462,-2.7457,-2.7462,-2.7461,-2.746,-2.7375,-2.7372,-2.737,-2.7368,-2.7317,-2.7317,-2.7317,-2.7366,0,0,-2.7318,-2.7318,0,0,0,0,0,0,0,0,-2.7511,-2.7509,-2.747,-2.7466,-2.746,-2.7422,-2.745,-2.7429,-2.7375,-2.7406,-2.7369,-2.7367,-2.7354,-2.7351,-2.7346,-2.7364,-2.7362,-2.7318,-2.7318,-2.7318,-2.7318,0,0,0,0,0,0,0,-2.7513,-2.751,-2.7492,-2.747,-2.7464,-2.7443,-2.7436,-2.7445,-2.7394,-2.7403,-2.7397,-2.7392,-2.735,-2.7346,-2.7344,-2.7361,-2.7318,-2.7318,-2.7318,-2.7318,-2.7417,-2.7419,0,0,0,0,0,0,-2.7522,-2.7512,-2.7494,-2.7491,-2.748,-2.7444,-2.7437,-2.7436,-2.7394,-2.7385,-2.7394,-2.7388,-2.7347,-2.7344,-2.7342,-2.7397,-2.7318,-2.7318,-2.7318,-2.7414,-2.7417,-2.742,0,0,0,0,0,0,-2.7523,-2.7521,-2.7496,-2.75,-2.7495,-2.7446,-2.7446,-2.7437,-2.7433,-2.7387,-2.7377,-2.7399,-2.7345,-2.7342,-2.7361,-2.7394,-2.7318,-2.7318,-2.7411,-2.7415,-2.7419,-2.7507,0,0,0,0,0,0,-2.7524,-2.7522,-2.754,-2.7501,-2.7495,-2.7516,-2.7449,-2.7438,-2.7433,-2.7425,-2.7389,-2.7381,-2.7343,-2.7361,-2.7361,-2.7393,-2.7318,-2.7408,-2.7413,-2.7417,-2.7501,-2.7513,-2.7524,0,0,0,0,0,-2.7525,-2.7567,-2.7541,-2.754,-2.7517,-2.7518,-2.7514,-2.747,-2.7436,-2.7454,-2.7425,-2.7382,-2.7391,-2.7364,-2.7363,-2.7395,-2.7406,-2.7411,-2.7417,-2.7496,-2.7511,-2.7524,0,0,0,0,0,0,-2.761,-2.7561,-2.7532,-2.7562,-2.7545,-2.7503,-2.7524,-2.7488,-2.7479,-2.7472,-2.7417,-2.741,-2.7436,-2.7418,-2.7389,-2.7441,-2.7392,-2.7397,-2.7452,-2.7466,-2.7477,-2.748,-2.7318,0,0,0,0,0,-2.7633,-2.7638,-2.7594,-2.7625,-2.7618,-2.7573,-2.7572,-2.7539,-2.7519,-2.7511,-2.7483,-2.7465,-2.7464,-2.7464,-2.746,-2.7498,-2.7489,-2.752,-2.7532,-2.7541,-2.7547,-2.7566,-2.7579,-2.7439,-2.7439,-2.7438,0,0,-2.7679,-2.7652,-2.7659,-2.7642,-2.7624,-2.7631,-2.7567,-2.7577,-2.7581,-2.7512,-2.7528,-2.7508,-2.7484,-2.7513,-2.7525,-2.7499,-2.7584,-2.7549,-2.7557,-2.7556,-2.7573,-2.7586,-2.7598,-2.7442,-2.7442,-2.7441,0,0,-2.7766,-2.7747,-2.777,-2.7755,-2.773,-2.77,-2.7706,-2.767,-2.7654,-2.7669,-2.7618,-2.7623,-2.7622,-2.7607,-2.7599,-2.7683,-2.7644,-2.7684,-2.7743,-2.7763,-2.7774,-2.7783,-2.7812,-2.7824,-2.7689,-2.769,-2.769,0,-2.7826,-2.7834,-2.7787,-2.78,-2.7794,-2.7733,-2.7757,-2.7744,-2.772,-2.7717,-2.7689,-2.7686,-2.7666,-2.7691,-2.7711,-2.7708,-2.7713,-2.7686,-2.7776,-2.7785,-2.7793,-2.782,-2.7832,-2.7695,-2.7694,-2.7693,-2.7693,0,-2.7909,-2.7916,-2.7938,-2.7916,-2.7912,-2.7931,-2.7887,-2.7889,-2.7858,-2.7831,-2.7848,-2.7823,-2.7812,-2.7816,-2.7786,-2.7837,-2.7822,-2.7786,-2.7735,-2.7812,-2.7837,-2.7847,-2.7702,-2.77,-2.7698,-2.7697,0,0,-2.8046,-2.8,-2.8008,-2.7998,-2.7967,-2.7971,-2.7987,-2.7978,-2.7981,-2.7966,-2.7978,-2.798,-2.7946,-2.7938,-2.7905,-2.7922,-2.799,-2.7884,-2.7882,-2.7904,-2.8045,-2.8072,-2.8085,-2.7965,-2.7966,-2.7968,-2.8047,0,-2.8126,-2.815,-2.811,-2.8143,-2.8149,-2.8092,-2.8106,-2.8089,-2.8065,-2.8067,-2.804,-2.8041,-2.7998,-2.7992,-2.8007,-2.7979,-2.8018,-2.7973,-2.7975,-2.7975,-2.7981,-2.8098,-2.8125,-2.8201,-2.8056,-2.8058,-2.8059,0,-2.8222,-2.8213,-2.8247,-2.8215,-2.8215,-2.8229,-2.8217,-2.8219,-2.8199,-2.818,-2.8172,-2.8134,-2.8148,-2.81,-2.8118,-2.8089,-2.8088,-2.8075,-2.8076,-2.8074,-2.8021,-2.8097,-2.8224,-2.8235,-2.8074,-2.8073,-2.8072,0,-2.8318,-2.8314,-2.8334,-2.8327,-2.829,-2.8301,-2.8286,-2.8263,-2.8261,-2.8251,-2.8249,-2.8241,-2.8237,-2.8232,-2.8193,-2.8162,-2.8216,-2.8165,-2.82,-2.8201,-2.8213,-2.8212,-2.834,-2.8214,-2.8214,-2.8214,-2.8214,0,-2.841,-2.8434,-2.8377,-2.8389,-2.8414,-2.8368,-2.8393,-2.8373,-2.8353,-2.8361,-2.8312,-2.832,-2.8269,-2.8272,-2.8241,-2.8261,-2.826,-2.8245,-2.8236,-2.8249,-2.825,-2.8246,-2.8239,-2.8217,-2.8216,-2.8216,-2.8215,0,-2.8521,-2.8484,-2.8502,-2.8466,-2.8458,-2.8478,-2.8447,-2.8457,-2.843,-2.8441,-2.844,-2.8399,-2.84,-2.8361,-2.8354,-2.8334,-2.8366,-2.8349,-2.8373,-2.8367,-2.8404,-2.8401,-2.8533,-2.8548,-2.8414,-2.8415,-2.8416,0,-2.8582,-2.8598,-2.8564,-2.8566,-2.8554,-2.8557,-2.8554,-2.851,-2.8509,-2.8488,-2.8501,-2.8498,-2.8493,-2.8497,-2.8466,-2.8461,-2.8442,-2.8489,-2.8441,-2.8453,-2.8442,-2.8441,-2.8442,-2.8498,-2.85,-2.8501,-2.8503,0,-2.8694,-2.8675,-2.8673,-2.8665,-2.8663,-2.8655,-2.8643,-2.8647,-2.8599,-2.86,-2.8601,-2.8597,-2.859,-2.8588,-2.8577,-2.8562,-2.8524,-2.8518,-2.8526,-2.8538,-2.8551,-2.8544,-2.8399,-2.8515,-2.8514,-2.8513,-2.8512,-2.8512,-2.878,-2.8793,-2.8771,-2.877,-2.8757,-2.8748,-2.8756,-2.8731,-2.873,-2.8721,-2.8696,-2.8701,-2.8681,-2.8662,-2.8651,-2.8654,-2.8631,-2.8642,-2.8645,-2.8648,-2.8655,-2.8552,-2.8652,-2.8651,-2.8651,-2.8651,-2.865,0,-2.8889,-2.8873,-2.8873,-2.8858,-2.8858,-2.8824,-2.881,-2.8812,-2.8817,-2.8802,-2.8798,-2.8799,-2.8797,-2.8767,-2.8761,-2.877,-2.8753,-2.877,-2.8768,-2.8765,-2.8676,-2.867,-2.8784,-2.8784,-2.8784,-2.8784,-2.8784,-2.8784,-2.8946,-2.8964,-2.8944,-2.8956,-2.8939,-2.8944,-2.8939,-2.893,-2.8917,-2.8921,-2.8919,-2.89,-2.8878,-2.8871,-2.8868,-2.8859,-2.8859,-2.8882,-2.8867,-2.8784,-2.8771,-2.8759,-2.8753,-2.8882,-2.8883,-2.8956,-2.8956,-2.8957]},{"header":{"parameterUnit":"m.s-1","parameterCategory":1,"la1":30.2991,"la2":30.254,"lo1":-89.0895,"lo2":-89.0444,"dy":0.0017,"dx":0.0017,"nx":28,"ny":28,"refTime":"2025-04-28T09:00:00:Z","depth":0,"parameterNumber":3,"parameterNumberName":"V-component_of_WINDS"},"data":[0,0,0,0,0,0,0,0,0,0,0,0,0,0,0,0,0,0,0,0,0,0,0,0,0,0,0,0,0,0,0,0,0,0,0,0,0,0,0,0,0,0,0,0,0,0,0,0,0,0,0,0,0,0,0,0,0,0,3.2399,3.2399,0,3.2431,3.2432,3.2432,3.244,3.244,3.244,3.244,3.247,3.2471,3.2472,0,0,0,0,0,0,0,0,0,0,0,0,0,3.2341,3.2342,3.2399,3.2399,3.24,3.2431,3.2432,3.2432,3.244,3.244,3.244,3.244,3.2469,3.2471,3.2472,0,0,0,0,0,0,0,0,0,0,0,0,0,3.2369,3.2343,3.2399,3.2408,3.2409,3.2431,3.2432,3.2432,3.244,3.244,3.244,3.2439,3.2469,3.247,3.2472,3.2487,0,0,3.2476,3.2477,0,0,0,0,0,0,0,0,3.2368,3.2371,3.2406,3.2407,3.2408,3.2432,3.2423,3.2451,3.244,3.2428,3.244,3.2439,3.2457,3.2459,3.2466,3.2488,3.249,3.2477,3.2477,3.2478,3.2478,0,0,0,0,0,0,0,3.2366,3.237,3.2412,3.2406,3.2408,3.2409,3.2413,3.2428,3.2444,3.2429,3.243,3.2434,3.2458,3.2465,3.2467,3.249,3.2476,3.2478,3.2479,3.2479,3.2527,3.2527,0,0,0,0,0,0,3.2363,3.2368,3.2411,3.2413,3.2387,3.241,3.2415,3.2424,3.2444,3.2446,3.2434,3.2434,3.2462,3.2465,3.2468,3.2487,3.2478,3.2479,3.248,3.2527,3.2527,3.2528,0,0,0,0,0,0,3.2361,3.2366,3.2409,3.2391,3.2396,3.2412,3.2423,3.2425,3.2432,3.2447,3.245,3.2439,3.2462,3.2466,3.2483,3.2489,3.248,3.2481,3.2526,3.2527,3.2527,3.2526,0,0,0,0,0,0,3.236,3.2366,3.2372,3.2391,3.2397,3.2424,3.2423,3.2426,3.2435,3.2436,3.2452,3.2455,3.2462,3.248,3.2484,3.249,3.2483,3.2526,3.2527,3.2527,3.2526,3.2527,3.2527,0,0,0,0,0,3.2358,3.237,3.2373,3.2378,3.2406,3.2425,3.2428,3.2437,3.2436,3.2442,3.2452,3.2454,3.2487,3.2482,3.2486,3.2493,3.2525,3.2526,3.2527,3.2525,3.2526,3.2527,0,0,0,0,0,0,3.235,3.2372,3.2376,3.2394,3.2408,3.2426,3.2434,3.2438,3.2451,3.2451,3.2461,3.2465,3.2481,3.2489,3.2482,3.2509,3.2506,3.2508,3.2503,3.2505,3.2505,3.2503,3.2484,0,0,0,0,0,3.2351,3.2365,3.2383,3.2398,3.2405,3.2418,3.2427,3.2433,3.2447,3.2452,3.2463,3.2475,3.2489,3.2497,3.251,3.2527,3.2531,3.2534,3.2535,3.2535,3.2537,3.2546,3.2548,3.253,3.253,3.253,0,0,3.2351,3.2366,3.2374,3.2397,3.2408,3.2422,3.2423,3.2437,3.2447,3.2454,3.2471,3.2479,3.2494,3.2511,3.2519,3.2518,3.2542,3.2536,3.2537,3.2538,3.2548,3.2549,3.2551,3.2531,3.2531,3.2531,0,0,3.2361,3.2373,3.2387,3.2399,3.2416,3.2425,3.2428,3.2446,3.2453,3.247,3.2475,3.2487,3.251,3.252,3.2528,3.2543,3.2546,3.2547,3.2551,3.256,3.2562,3.2563,3.2568,3.257,3.2548,3.2548,3.2548,0,3.236,3.2382,3.2393,3.2408,3.2418,3.2426,3.244,3.245,3.247,3.2476,3.2475,3.2505,3.2515,3.2535,3.2538,3.2545,3.2549,3.2545,3.2561,3.2562,3.2564,3.2569,3.2571,3.2548,3.2548,3.2548,3.2548,0,3.238,3.2395,3.2404,3.2425,3.2436,3.245,3.2463,3.2473,3.2478,3.2487,3.2505,3.2518,3.2534,3.2539,3.2544,3.256,3.2559,3.2559,3.2556,3.2565,3.257,3.2572,3.2548,3.2548,3.2548,3.2548,0,0,3.2384,3.2412,3.2416,3.2426,3.2446,3.2457,3.2472,3.2489,3.2497,3.2511,3.2523,3.2543,3.2543,3.2553,3.2559,3.2567,3.2578,3.2567,3.2567,3.2569,3.2597,3.2596,3.2598,3.2581,3.2581,3.2581,3.2596,0,3.2396,3.2424,3.2435,3.2457,3.2471,3.2479,3.2492,3.2505,3.2514,3.2527,3.2537,3.2551,3.2551,3.2556,3.2565,3.2575,3.2584,3.2574,3.2591,3.2592,3.2587,3.2601,3.26,3.2613,3.2598,3.2598,3.2598,0,3.2413,3.2429,3.2453,3.2472,3.2479,3.249,3.2507,3.2519,3.2535,3.2541,3.2552,3.2558,3.2573,3.257,3.259,3.2583,3.2591,3.2597,3.2598,3.2599,3.2595,3.2603,3.2618,3.2619,3.2601,3.2601,3.2601,0,3.2414,3.2441,3.2459,3.2468,3.2491,3.2499,3.2508,3.2523,3.2533,3.2548,3.2554,3.257,3.2578,3.259,3.2599,3.2596,3.2619,3.2617,3.2624,3.2624,3.2628,3.2628,3.2644,3.2633,3.2633,3.2633,3.2633,0,3.2427,3.2441,3.2461,3.2472,3.2488,3.25,3.2516,3.2526,3.2539,3.2552,3.2559,3.2571,3.2583,3.2596,3.2604,3.262,3.2623,3.2628,3.263,3.2628,3.2627,3.2632,3.2632,3.2634,3.2633,3.2633,3.2633,0,3.243,3.2444,3.2465,3.2485,3.2491,3.2502,3.2519,3.253,3.254,3.2556,3.256,3.2575,3.2591,3.2602,3.2621,3.2627,3.2644,3.2646,3.2639,3.264,3.2647,3.2646,3.2667,3.2671,3.2657,3.2658,3.2658,0,3.2437,3.2449,3.2471,3.2481,3.2491,3.2506,3.2517,3.253,3.254,3.2559,3.2567,3.2584,3.2598,3.2622,3.2634,3.2649,3.2652,3.2658,3.2654,3.2651,3.2652,3.2651,3.2652,3.2658,3.2659,3.2659,3.2659,0,3.2448,3.2455,3.247,3.2489,3.2501,3.2516,3.253,3.2538,3.2553,3.2564,3.2581,3.2592,3.2613,3.2629,3.2646,3.2655,3.2659,3.266,3.2663,3.266,3.2656,3.2658,3.2641,3.2659,3.2659,3.2659,3.2659,3.2659,3.2453,3.2464,3.2483,3.25,3.2513,3.2526,3.2538,3.255,3.2564,3.2583,3.259,3.2607,3.2622,3.2645,3.2655,3.2668,3.2668,3.2671,3.2672,3.2673,3.2673,3.2654,3.2671,3.2671,3.2671,3.2671,3.2671,0,3.2465,3.2477,3.2493,3.2514,3.2528,3.2532,3.2549,3.256,3.2575,3.259,3.2604,3.2623,3.2639,3.2653,3.2669,3.2677,3.268,3.2681,3.2681,3.2683,3.2672,3.2668,3.2679,3.2679,3.2679,3.2679,3.2679,3.2679,3.2472,3.2491,3.25,3.2525,3.2537,3.2556,3.2565,3.2577,3.2589,3.2611,3.2625,3.2634,3.2648,3.2666,3.2681,3.2684,3.269,3.2691,3.2695,3.2684,3.2683,3.2682,3.2679,3.2692,3.2692,3.2704,3.2704,3.2704]}]]